| time (UTC) | temp F | wind direction | speed knots | gust knots | rain 1hr in | rain 24hr in | rain mn in | humidity % | barometer mb |
| 20260904173056 | 77 | 175 | 5.2 | 8.7 | 0.00 | 0.00 | 0.00 | 70 | 1014.0 |
| 20260904171543 | 76 | 194 | 4.3 | 7.8 | 0.00 | 0.00 | 0.00 | 71 | 1013.9 |
| 20260904170039 | 76 | 239 | 3.5 | 7.8 | 0.00 | 0.00 | 0.00 | 73 | 1013.8 |
| 20260904164537 | 76 | 206 | 2.6 | 5.2 | 0.00 | 0.00 | 0.00 | 71 | 1013.5 |
| 20260904163034 | 76 | 205 | 1.7 | 5.2 | 0.00 | 0.00 | 0.00 | 72 | 1013.4 |
| 20260904161535 | 76 | 157 | 0.9 | 6.1 | 0.00 | 0.00 | 0.00 | 71 | 1013.3 |
| 20260904160032 | 76 | 150 | 0.0 | 2.6 | 0.00 | 0.00 | 0.00 | 72 | 1013.2 |
| 20260904154525 | 75 | 155 | 0.0 | 3.5 | 0.00 | 0.00 | 0.00 | 74 | 1013.1 |
| 20260904153021 | 73 | 145 | 0.9 | 5.2 | 0.00 | 0.00 | 0.00 | 76 | 1013.2 |
| 20260904151518 | 73 | 117 | 0.0 | 3.5 | 0.00 | 0.00 | 0.00 | 77 | 1013.1 |
| 20260904150026 | 70 | 110 | 0.9 | 3.5 | 0.00 | 0.00 | 0.00 | 81 | 1013.0 |
| 20260904144510 | 68 | 105 | 1.7 | 5.2 | 0.00 | 0.00 | 0.00 | 85 | 1013.0 |
| 20260904143006 | 66 | 107 | 0.9 | 5.2 | 0.00 | 0.00 | 0.00 | 90 | 1013.0 |
| 20260904141502 | 65 | 98 | 0.9 | 3.5 | 0.00 | 0.00 | 0.00 | 90 | 1012.8 |
| 20260904140105 | 65 | 269 | 0.0 | 2.6 | 0.00 | 0.00 | 0.00 | 91 | 1012.6 |
| 20260904134613 | 65 | 269 | 0.0 | 0.0 | 0.00 | 0.00 | 0.00 | 91 | 1012.5 |
| 20260904133058 | 64 | 269 | 0.0 | 0.0 | 0.00 | 0.00 | 0.00 | 91 | 1012.4 |
| 20260904131558 | 65 | 269 | 0.0 | 0.0 | 0.00 | 0.00 | 0.00 | 91 | 1012.4 |
| 20260904130056 | 65 | 269 | 0.0 | 0.0 | 0.00 | 0.00 | 0.00 | 91 | 1012.3 |
| 20260904124555 | 65 | 269 | 0.0 | 0.0 | 0.00 | 0.00 | 0.00 | 91 | 1012.3 |
| 20260904123054 | 65 | 269 | 0.0 | 0.0 | 0.00 | 0.00 | 0.00 | 91 | 1012.2 |
| 20260904121554 | 65 | 269 | 0.0 | 0.0 | 0.00 | 0.00 | 0.00 | 91 | 1012.1 |
| 20260904120104 | 65 | 269 | 0.0 | 0.0 | 0.00 | 0.00 | 0.00 | 91 | 1012.0 |
| 20260904114554 | 65 | 269 | 0.0 | 0.0 | 0.00 | 0.00 | 0.00 | 91 | 1012.1 |
| 20260904113052 | 65 | 269 | 0.0 | 0.0 | 0.00 | 0.00 | 0.00 | 91 | 1012.1 |
| 20260904111551 | 65 | 269 | 0.0 | 0.0 | 0.00 | 0.00 | 0.00 | 91 | 1012.0 |
| 20260904110051 | 65 | 269 | 0.0 | 2.6 | 0.00 | 0.00 | 0.00 | 92 | 1012.1 |
| 20260904104550 | 65 | 269 | 0.0 | 1.7 | 0.00 | 0.00 | 0.00 | 91 | 1012.1 |
| 20260904103048 | 65 | 269 | 0.0 | 0.0 | 0.00 | 0.00 | 0.00 | 91 | 1011.9 |
| 20260904101547 | 65 | 269 | 0.0 | 0.0 | 0.00 | 0.00 | 0.00 | 91 | 1011.9 |
| 20260904100050 | 65 | 269 | 0.0 | 0.0 | 0.00 | 0.00 | 0.00 | 91 | 1011.9 |
| 20260904094551 | 65 | 269 | 0.0 | 0.0 | 0.00 | 0.00 | 0.00 | 91 | 1012.0 |
| 20260904093047 | 65 | 269 | 0.0 | 3.5 | 0.00 | 0.00 | 0.00 | 92 | 1012.0 |
| 20260904091544 | 65 | 269 | 0.0 | 0.0 | 0.00 | 0.00 | 0.00 | 92 | 1011.9 |
| 20260904090044 | 65 | 269 | 0.0 | 0.0 | 0.00 | 0.00 | 0.00 | 92 | 1012.0 |
| 20260904084543 | 65 | 269 | 0.0 | 0.0 | 0.00 | 0.00 | 0.00 | 92 | 1012.0 |
| 20260904083046 | 65 | 269 | 0.0 | 0.0 | 0.00 | 0.00 | 0.00 | 92 | 1012.2 |
| 20260904081541 | 65 | 269 | 0.0 | 0.0 | 0.00 | 0.00 | 0.00 | 91 | 1012.2 |
| 20260904080041 | 65 | 269 | 0.0 | 0.0 | 0.00 | 0.00 | 0.00 | 91 | 1012.2 |
| 20260904074539 | 65 | 269 | 0.0 | 0.0 | 0.00 | 0.00 | 0.00 | 90 | 1012.2 |
| 20260904073038 | 65 | 269 | 0.0 | 0.0 | 0.00 | 0.00 | 0.00 | 90 | 1012.2 |
| 20260904071536 | 65 | 269 | 0.0 | 0.0 | 0.00 | 0.00 | 0.00 | 89 | 1012.1 |
| 20260904070034 | 66 | 269 | 0.0 | 0.0 | 0.00 | 0.00 | 0.00 | 89 | 1012.0 |
| 20260904064535 | 66 | 269 | 0.0 | 0.0 | 0.00 | 0.00 | 0.00 | 87 | 1012.1 |
| 20260904063036 | 66 | 269 | 0.0 | 0.0 | 0.00 | 0.00 | 0.00 | 86 | 1012.0 |
| 20260904061532 | 67 | 269 | 0.0 | 0.0 | 0.00 | 0.00 | 0.00 | 86 | 1012.0 |
| 20260904060032 | 68 | 269 | 0.0 | 0.0 | 0.00 | 0.00 | 0.00 | 85 | 1012.0 |
| 20260904054531 | 69 | 269 | 0.0 | 0.0 | 0.00 | 0.00 | 0.00 | 86 | 1011.9 |
| 20260904053031 | 69 | 269 | 0.0 | 3.5 | 0.00 | 0.00 | 0.00 | 86 | 1012.0 |
| 20260904051529 | 69 | 269 | 2.6 | 5.2 | 0.00 | 0.00 | 0.00 | 86 | 1012.2 |
| 20260904050030 | 69 | 269 | 0.0 | 0.0 | 0.00 | 0.00 | 0.00 | 86 | 1012.2 |
| 20260904044532 | 69 | 269 | 0.0 | 0.0 | 0.00 | 0.00 | 0.00 | 86 | 1012.0 |
| 20260904043029 | 69 | 269 | 0.0 | 0.0 | 0.00 | 0.00 | 0.00 | 85 | 1011.9 |
| 20260904041528 | 69 | 269 | 0.0 | 0.0 | 0.00 | 0.00 | 0.00 | 85 | 1011.8 |
| 20260904040028 | 70 | 269 | 0.0 | 3.5 | 0.00 | 0.00 | 0.00 | 85 | 1011.8 |
| 20260904034534 | 70 | 272 | 2.6 | 6.1 | 0.00 | 0.00 | 0.00 | 86 | 1011.6 |
| 20260904033027 | 70 | 285 | 0.0 | 6.1 | 0.00 | 0.00 | 0.00 | 85 | 1011.5 |
| 20260904031526 | 70 | 275 | 3.5 | 7.8 | 0.00 | 0.00 | 0.00 | 84 | 1011.3 |
| 20260904030026 | 70 | 275 | 5.2 | 9.6 | 0.00 | 0.00 | 0.00 | 84 | 1011.2 |
| 20260904024526 | 70 | 282 | 5.2 | 9.6 | 0.00 | 0.00 | 0.00 | 83 | 1011.2 |
| 20260904023025 | 70 | 255 | 5.2 | 10.4 | 0.00 | 0.00 | 0.00 | 83 | 1011.3 |
| 20260904021527 | 71 | 284 | 6.1 | 11.3 | 0.00 | 0.00 | 0.00 | 82 | 1011.3 |
| 20260904020020 | 71 | 274 | 5.2 | 10.4 | 0.00 | 0.00 | 0.00 | 81 | 1011.4 |
| 20260904014518 | 72 | 263 | 5.2 | 11.3 | 0.00 | 0.00 | 0.00 | 80 | 1011.4 |
| 20260904013016 | 72 | 236 | 6.1 | 11.3 | 0.00 | 0.00 | 0.00 | 79 | 1011.5 |
| 20260904011518 | 73 | 259 | 4.3 | 12.2 | 0.00 | 0.00 | 0.00 | 78 | 1011.6 |
| 20260904010016 | 74 | 259 | 6.1 | 10.4 | 0.00 | 0.00 | 0.00 | 76 | 1011.5 |
| 20260904004510 | 75 | 263 | 5.2 | 10.4 | 0.00 | 0.00 | 0.00 | 75 | 1011.5 |
| 20260904003012 | 76 | 259 | 6.1 | 12.2 | 0.00 | 0.00 | 0.00 | 75 | 1011.6 |
| 20260904001506 | 76 | 239 | 6.1 | 13.9 | 0.00 | 0.00 | 0.00 | 75 | 1011.5 |
| 20260904000006 | 76 | 284 | 7.0 | 12.2 | 0.00 | 0.00 | 0.00 | 75 | 1011.6 |
| 20260903234504 | 77 | 246 | 6.1 | 12.2 | 0.00 | 0.00 | 0.00 | 74 | 1011.7 |
| 20260903233002 | 77 | 272 | 5.2 | 10.4 | 0.00 | 0.00 | 0.00 | 74 | 1011.9 |
| 20260903231502 | 78 | 229 | 5.2 | 10.4 | 0.00 | 0.00 | 0.00 | 74 | 1011.9 |
| 20260903224615 | 79 | 265 | 7.0 | 12.2 | 0.00 | 0.00 | 0.00 | 72 | 1012.1 |
| 20260903223058 | 79 | 236 | 5.2 | 9.6 | 0.00 | 0.00 | 0.00 | 72 | 1012.2 |
| 20260903221556 | 79 | 248 | 4.3 | 11.3 | 0.00 | 0.00 | 0.00 | 72 | 1012.4 |
| 20260903220055 | 79 | 236 | 3.5 | 9.6 | 0.00 | 0.00 | 0.00 | 71 | 1012.4 |
| 20260903214607 | 79 | 200 | 3.5 | 11.3 | 0.00 | 0.00 | 0.00 | 72 | 1012.6 |
| 20260903213100 | 79 | 218 | 5.2 | 12.2 | 0.00 | 0.00 | 0.00 | 72 | 1012.7 |
| 20260903211547 | 78 | 238 | 4.3 | 11.3 | 0.00 | 0.00 | 0.00 | 74 | 1012.7 |
| 20260903210118 | 79 | 238 | 4.3 | 12.2 | 0.00 | 0.00 | 0.00 | 74 | 1012.6 |
| 20260903204549 | 78 | 259 | 6.1 | 11.3 | 0.00 | 0.00 | 0.00 | 73 | 1012.8 |
| 20260903203103 | 78 | 196 | 4.3 | 11.3 | 0.00 | 0.00 | 0.00 | 74 | 1013.0 |
| 20260903201544 | 79 | 194 | 3.5 | 8.7 | 0.00 | 0.00 | 0.00 | 73 | 1013.1 |
| 20260903200045 | 78 | 236 | 5.2 | 11.3 | 0.00 | 0.00 | 0.00 | 74 | 1013.3 |
| 20260903194537 | 78 | 196 | 6.1 | 8.7 | 0.00 | 0.00 | 0.00 | 73 | 1013.3 |
| 20260903193035 | 78 | 289 | 3.5 | 10.4 | 0.00 | 0.00 | 0.00 | 75 | 1013.5 |
| 20260903191536 | 78 | 203 | 3.5 | 8.7 | 0.00 | 0.00 | 0.00 | 74 | 1013.7 |
| 20260903190034 | 78 | 244 | 3.5 | 9.6 | 0.00 | 0.00 | 0.00 | 75 | 1013.9 |
| 20260903184532 | 78 | 202 | 2.6 | 8.7 | 0.00 | 0.00 | 0.00 | 74 | 1014.1 |
| 20260903183029 | 78 | 221 | 2.6 | 8.7 | 0.00 | 0.00 | 0.00 | 75 | 1014.3 |
| 20260903181528 | 77 | 182 | 4.3 | 8.7 | 0.00 | 0.00 | 0.00 | 76 | 1014.4 |
| 20260903180027 | 77 | 234 | 2.6 | 7.0 | 0.00 | 0.00 | 0.00 | 74 | 1014.3 |
| 20260903174530 | 76 | 213 | 1.7 | 6.1 | 0.00 | 0.00 | 0.00 | 75 | 1014.3 |